Time,TemperatureF,DewpointF,PressureIn,WindDirection,WindDirectionDegrees,WindSpeedMPH,WindSpeedGustMPH,Humidity,HourlyPrecipIn,Conditions,Clouds,dailyrainin,SoftwareType,DateUTC
2013-10-19 00:00:00,13.0,10.0,-100.00,NNE,16,1.0,4.0,87,-99.99,,,-99.99,,2013-10-19 06:00:00,
2013-10-19 00:52:00,13.0,10.0,-100.00,NNE,16,1.0,4.0,87,-99.99,,,-99.99,,2013-10-19 06:52:00,
2013-10-19 01:00:00,13.0,10.0,-100.00,NE,38,1.0,2.0,88,-99.99,,,-99.99,,2013-10-19 07:00:00,
2013-10-19 01:53:00,13.0,10.0,-100.00,NE,38,1.0,2.0,88,-99.99,,,-99.99,,2013-10-19 07:53:00,
2013-10-19 02:00:00,13.0,10.0,-100.00,East,84,1.0,2.0,89,-99.99,,,-99.99,,2013-10-19 08:00:00,
2013-10-19 02:52:00,13.0,10.0,-100.00,East,84,1.0,2.0,89,-99.99,,,-99.99,,2013-10-19 08:52:00,
2013-10-19 03:00:00,13.0,10.0,-100.00,NE,46,1.0,2.0,89,-99.99,,,-99.99,,2013-10-19 09:00:00,
2013-10-19 03:54:00,13.0,10.0,-100.00,NE,46,1.0,2.0,89,-99.99,,,-99.99,,2013-10-19 09:54:00,
2013-10-19 04:00:00,14.0,11.0,-100.00,NE,34,1.0,2.0,87,-99.99,,,-99.99,,2013-10-19 10:00:00,
2013-10-19 04:53:00,14.0,11.0,-100.00,NE,34,1.0,2.0,87,-99.99,,,-99.99,,2013-10-19 10:53:00,
2013-10-19 05:00:00,13.0,10.0,-100.00,ENE,68,1.0,2.0,89,-99.99,,,-99.99,,2013-10-19 11:00:00,
2013-10-19 05:52:00,13.0,10.0,-100.00,ENE,68,1.0,2.0,89,-99.99,,,-99.99,,2013-10-19 11:52:00,
2013-10-19 06:00:00,13.0,11.0,-100.00,NE,44,0.0,2.0,90,-99.99,,,-99.99,,2013-10-19 12:00:00,
2013-10-19 06:52:00,13.0,11.0,-100.00,NE,44,0.0,2.0,90,-99.99,,,-99.99,,2013-10-19 12:52:00,
2013-10-19 07:00:00,15.0,12.0,-100.00,NNE,32,1.0,3.0,86,-99.99,,,-99.99,,2013-10-19 13:00:00,
2013-10-19 07:52:00,15.0,12.0,-100.00,NNE,32,1.0,3.0,86,-99.99,,,-99.99,,2013-10-19 13:52:00,
2013-10-19 08:00:00,14.0,11.0,-100.00,ENE,67,0.0,1.0,90,-99.99,,,-99.99,,2013-10-19 14:00:00,
2013-10-19 08:52:00,14.0,11.0,-100.00,ENE,67,0.0,1.0,90,-99.99,,,-99.99,,2013-10-19 14:52:00,
2013-10-19 09:00:00,15.0,12.0,-100.00,NNE,12,1.0,4.0,88,-99.99,,,-99.99,,2013-10-19 15:00:00,
2013-10-19 09:55:00,15.0,12.0,-100.00,NNE,12,1.0,4.0,88,-99.99,,,-99.99,,2013-10-19 15:55:00,
2013-10-19 15:00:00,33.0,15.0,-100.00,NNW,345,7.0,18.0,46,-99.99,,,-99.99,,2013-10-19 21:00:00,
2013-10-19 15:54:00,33.0,15.0,-100.00,NNW,345,7.0,18.0,46,-99.99,,,-99.99,,2013-10-19 21:54:00,
2013-10-19 16:00:00,35.0,16.0,-100.00,NNW,340,6.0,17.0,45,-99.99,,,-99.99,,2013-10-19 22:00:00,
2013-10-19 16:53:00,35.0,16.0,-100.00,NNW,340,6.0,17.0,45,-99.99,,,-99.99,,2013-10-19 22:53:00,
2013-10-19 17:00:00,35.0,16.0,-100.00,NNW,344,7.0,20.0,45,-99.99,,,-99.99,,2013-10-19 23:00:00,
2013-10-19 17:53:00,35.0,16.0,-100.00,NNW,344,7.0,20.0,45,-99.99,,,-99.99,,2013-10-19 23:53:00,
2013-10-19 18:00:00,34.0,16.0,-100.00,NNW,328,3.0,12.0,49,-99.99,,,-99.99,,2013-10-20 00:00:00,
2013-10-19 18:52:00,34.0,16.0,-100.00,NNW,328,3.0,12.0,49,-99.99,,,-99.99,,2013-10-20 00:52:00,
2013-10-19 19:00:00,30.0,16.0,-100.00,NNW,340,4.0,13.0,57,-99.99,,,-99.99,,2013-10-20 01:00:00,
2013-10-19 19:52:00,30.0,16.0,-100.00,NNW,340,4.0,13.0,57,-99.99,,,-99.99,,2013-10-20 01:52:00,
2013-10-19 20:00:00,28.0,16.0,-100.00,NNW,340,4.0,12.0,59,-99.99,,,-99.99,,2013-10-20 02:00:00,
2013-10-19 20:52:00,28.0,16.0,-100.00,NNW,340,4.0,12.0,59,-99.99,,,-99.99,,2013-10-20 02:52:00,
2013-10-19 21:00:00,-999.0,-99.9,-100.00,NNW,347,3.0,10.0,-999,-99.99,,,-99.99,,2013-10-20 03:00:00,
2013-10-19 21:55:00,27.0,16.0,-100.00,NNW,347,3.0,10.0,61,-99.99,,,-99.99,,2013-10-20 03:55:00,
2013-10-19 22:00:00,25.0,16.0,-100.00,North,360,1.0,3.0,67,-99.99,,,-99.99,,2013-10-20 04:00:00,
2013-10-19 22:54:00,25.0,16.0,-100.00,North,360,1.0,3.0,67,-99.99,,,-99.99,,2013-10-20 04:54:00,
2013-10-19 23:00:00,24.0,16.0,-100.00,North,9,1.0,5.0,69,-99.99,,,-99.99,,2013-10-20 05:00:00,
2013-10-19 23:52:00,24.0,16.0,-100.00,North,9,1.0,5.0,69,-99.99,,,-99.99,,2013-10-20 05:52:00,